• In Lithuania
  • List of Countries
  • For 7 days
  • Water Temperature
  • Satellite Maps
  • Weather Map
  • Weather Widgets
  • user-avatar
    Login

    Hourly Weather Farakka

    Today, 21 January, Sunday

    Time Temperature Precipitation Wind Pressure Humidity
    00:00 +18°C° 0 mm 1 mps 758 mmHg 58%
    01:00 +18°C° 0 mm 1 mps 758 mmHg 60%
    02:00 +16°C° 0 mm 1 mps 758 mmHg 62%
    03:00 +16°C° 0 mm 1 mps 758 mmHg 63%
    04:00 +15°C° 0 mm 1 mps 758 mmHg 65%
    05:00 +15°C° 0 mm 1 mps 758 mmHg 66%
    06:00 +14°C° 0 mm 1 mps 758 mmHg 68%
    07:00 +16°C° 0 mm 1 mps 759 mmHg 63%
    08:00 +18°C° 0 mm 1 mps 759 mmHg 58%
    09:00 +18°C° 0 mm 2 mps 759 mmHg 53%
    10:00 +20°C° 0 mm 2 mps 759 mmHg 47%
    11:00 +23°C° 0 mm 2 mps 759 mmHg 41%
    12:00 +26°C° 0 mm 1 mps 759 mmHg 30%
    13:00 +26°C° 0 mm 2 mps 758 mmHg 28%
    14:00 +27°C° 0 mm 2 mps 758 mmHg 26%
    15:00 +28°C° 0 mm 3 mps 757 mmHg 24%
    16:00 +26°C° 0 mm 2 mps 757 mmHg 27%
    17:00 +24°C° 0 mm 2 mps 757 mmHg 30%
    18:00 +23°C° 0 mm 2 mps 756 mmHg 33%
    19:00 +21°C° 0 mm 2 mps 757 mmHg 36%
    20:00 +20°C° 0 mm 2 mps 757 mmHg 38%
    21:00 +19°C° 0 mm 2 mps 757 mmHg 41%
    22:00 +18°C° 0 mm 2 mps 757 mmHg 43%
    23:00 +18°C° 0 mm 2 mps 757 mmHg 44%

    Tomorrow, 22 January, Monday

    Time Temperature Precipitation Wind Pressure Humidity
    00:00 +17°C° 0 mm 2 mps 757 mmHg 46%
    01:00 +17°C° 0 mm 2 mps 757 mmHg 47%
    02:00 +16°C° 0 mm 2 mps 757 mmHg 49%
    03:00 +16°C° 0 mm 2 mps 757 mmHg 51%
    04:00 +15°C° 0 mm 1 mps 757 mmHg 52%
    05:00 +15°C° 0 mm 1 mps 757 mmHg 54%
    06:00 +14°C° 0 mm 1 mps 757 mmHg 55%
    07:00 +16°C° 0 mm 1 mps 757 mmHg 52%
    08:00 +17°C° 0 mm 2 mps 758 mmHg 48%
    09:00 +18°C° 0 mm 2 mps 759 mmHg 45%
    10:00 +20°C° 0 mm 2 mps 758 mmHg 41%
    11:00 +23°C° 0 mm 2 mps 758 mmHg 37%
    12:00 +25°C° 0 mm 2 mps 758 mmHg 33%
    13:00 +26°C° 0 mm 2 mps 757 mmHg 31%
    14:00 +26°C° 0 mm 2 mps 756 mmHg 28%
    15:00 +27°C° 0 mm 2 mps 755 mmHg 26%
    16:00 +26°C° 0 mm 2 mps 755 mmHg 29%
    17:00 +24°C° 0 mm 2 mps 755 mmHg 32%
    18:00 +23°C° 0 mm 1 mps 755 mmHg 36%
    19:00 +22°C° 0 mm 1 mps 756 mmHg 38%
    20:00 +20°C° 0 mm 2 mps 756 mmHg 41%
    21:00 +19°C° 0 mm 2 mps 757 mmHg 43%
    22:00 +19°C° 0 mm 2 mps 757 mmHg 46%
    23:00 +18°C° 0 mm 2 mps 757 mmHg 48%

    Day after tomorrow, 23 January, Tuesday

    Time Temperature Precipitation Wind Pressure Humidity
    00:00 +18°C° 0 mm 2 mps 757 mmHg 50%
    01:00 +17°C° 0 mm 2 mps 757 mmHg 52%
    02:00 +17°C° 0 mm 2 mps 757 mmHg 54%
    03:00 +16°C° 0 mm 2 mps 756 mmHg 56%
    04:00 +16°C° 0 mm 2 mps 756 mmHg 58%
    05:00 +15°C° 0 mm 1 mps 756 mmHg 60%
    06:00 +15°C° 0 mm 1 mps 756 mmHg 62%
    07:00 +16°C° 0 mm 1 mps 757 mmHg 58%
    08:00 +19°C° 0 mm 1 mps 757 mmHg 54%
    09:00 +20°C° 0 mm 1 mps 758 mmHg 50%
    10:00 +22°C° 0 mm 1 mps 758 mmHg 44%
    11:00 +24°C° 0 mm 1 mps 757 mmHg 38%
    12:00 +26°C° 0 mm 1 mps 757 mmHg 33%
    13:00 +27°C° 0 mm 1 mps 756 mmHg 30%
    14:00 +28°C° 0 mm 1 mps 755 mmHg 27%
    15:00 +28°C° 0 mm 1 mps 754 mmHg 25%
    16:00 +27°C° 0 mm 1 mps 754 mmHg 27%
    17:00 +25°C° 0 mm 1 mps 754 mmHg 29%
    18:00 +24°C° 0 mm 1 mps 754 mmHg 31%
    19:00 +23°C° 0 mm 1 mps 754 mmHg 34%
    20:00 +22°C° 0 mm 1 mps 755 mmHg 36%
    21:00 +22°C° 0 mm 1 mps 755 mmHg 38%
    22:00 +21°C° 0 mm 1 mps 755 mmHg 40%
    23:00 +20°C° 0 mm 1 mps 755 mmHg 42%

    24 January, Wednesday

    Time Temperature Precipitation Wind Pressure Humidity
    00:00 +20°C° 0 mm 1 mps 755 mmHg 44%
    01:00 +19°C° 0 mm 1 mps 754 mmHg 45%
    02:00 +17°C° 0 mm 0 mps 754 mmHg 46%
    03:00 +17°C° 0 mm 0 mps 754 mmHg 47%
    04:00 +16°C° 0 mm 0 mps 754 mmHg 47%
    05:00 +16°C° 0 mm 0 mps 754 mmHg 47%
    06:00 +16°C° 0 mm 0 mps 754 mmHg 48%
    07:00 +19°C° 0 mm 1 mps 754 mmHg 44%
    08:00 +21°C° 0 mm 1 mps 755 mmHg 41%
    09:00 +23°C° 0 mm 1 mps 756 mmHg 37%
    10:00 +24°C° 0 mm 1 mps 755 mmHg 33%
    11:00 +26°C° 0 mm 1 mps 755 mmHg 30%
    12:00 +28°C° 0 mm 2 mps 755 mmHg 26%
    13:00 +29°C° 0 mm 2 mps 754 mmHg 25%
    14:00 +30°C° 0 mm 2 mps 753 mmHg 25%
    15:00 +30°C° 0 mm 2 mps 752 mmHg 24%
    16:00 +29°C° 0 mm 2 mps 752 mmHg 27%
    17:00 +28°C° 0 mm 2 mps 752 mmHg 29%
    18:00 +27°C° 0 mm 1 mps 752 mmHg 32%
    19:00 +26°C° 0 mm 1 mps 752 mmHg 33%
    20:00 +26°C° 0 mm 1 mps 753 mmHg 34%
    21:00 +25°C° 0 mm 1 mps 754 mmHg 35%
    22:00 +25°C° 0 mm 1 mps 754 mmHg 36%
    23:00 +24°C° 0 mm 2 mps 754 mmHg 37%

    25 January, Thursday

    Time Temperature Precipitation Wind Pressure Humidity
    00:00 +24°C° 0 mm 2 mps 754 mmHg 38%
    01:00 +22°C° 0 mm 3 mps 754 mmHg 42%
    02:00 +21°C° 0 mm 3 mps 754 mmHg 47%
    03:00 +20°C° 0 mm 4 mps 754 mmHg 52%
    04:00 +19°C° 0 mm 4 mps 754 mmHg 54%
    05:00 +18°C° 0 mm 4 mps 754 mmHg 57%
    06:00 +17°C° 0 mm 4 mps 754 mmHg 60%
    07:00 +18°C° 0 mm 4 mps 755 mmHg 56%
    08:00 +19°C° 0 mm 4 mps 756 mmHg 53%
    09:00 +20°C° 0 mm 4 mps 756 mmHg 50%
    10:00 +22°C° 0 mm 4 mps 756 mmHg 44%
    11:00 +25°C° 0 mm 4 mps 756 mmHg 39%
    12:00 +27°C° 0 mm 4 mps 756 mmHg 33%
    13:00 +27°C° 0 mm 4 mps 755 mmHg 32%
    14:00 +28°C° 0 mm 4 mps 754 mmHg 31%
    15:00 +28°C° 0 mm 4 mps 753 mmHg 29%
    16:00 +27°C° 0 mm 3 mps 753 mmHg 33%
    17:00 +26°C° 0 mm 3 mps 753 mmHg 36%
    18:00 +24°C° 0 mm 3 mps 753 mmHg 40%
    19:00 +22°C° 0 mm 3 mps 754 mmHg 43%
    20:00 +21°C° 0 mm 3 mps 755 mmHg 46%
    21:00 +21°C° 0 mm 3 mps 755 mmHg 50%
    22:00 +20°C° 0 mm 3 mps 755 mmHg 53%
    23:00 +19°C° 0 mm 3 mps 756 mmHg 56%

    26 January, Friday

    Time Temperature Precipitation Wind Pressure Humidity
    00:00 +19°C° 0 mm 3 mps 756 mmHg 59%
    01:00 +18°C° 0 mm 3 mps 755 mmHg 61%
    02:00 +18°C° 0 mm 3 mps 755 mmHg 63%
    03:00 +17°C° 0 mm 3 mps 755 mmHg 66%
    04:00 +17°C° 0 mm 2 mps 755 mmHg 68%
    05:00 +16°C° 0 mm 2 mps 755 mmHg 70%
    06:00 +16°C° 0 mm 2 mps 755 mmHg 73%
    07:00 +17°C° 0 mm 2 mps 756 mmHg 68%
    08:00 +18°C° 0 mm 2 mps 757 mmHg 64%
    09:00 +20°C° 0 mm 2 mps 757 mmHg 60%
    10:00 +22°C° 0 mm 3 mps 757 mmHg 54%
    11:00 +24°C° 0 mm 3 mps 757 mmHg 47%
    12:00 +26°C° 0 mm 3 mps 757 mmHg 41%
    13:00 +27°C° 0 mm 3 mps 756 mmHg 38%
    14:00 +27°C° 0 mm 3 mps 755 mmHg 35%
    15:00 +28°C° 0 mm 3 mps 754 mmHg 32%
    16:00 +26°C° 0 mm 3 mps 754 mmHg 35%
    17:00 +25°C° 0 mm 3 mps 754 mmHg 38%
    18:00 +24°C° 0 mm 2 mps 754 mmHg 41%
    19:00 +23°C° 0 mm 2 mps 754 mmHg 44%
    20:00 +21°C° 0 mm 2 mps 755 mmHg 47%
    21:00 +20°C° 0 mm 3 mps 755 mmHg 50%
    22:00 +19°C° 0 mm 2 mps 755 mmHg 53%
    23:00 +19°C° 0 mm 2 mps 755 mmHg 55%
    Show more